Chadron, NE

6:29 PM MDT on September 20, 2017 (GMT -0600)
Chadron Municipal

Weather History for KCDR - March, 2014

Change the Weather History Date:

Sunday, March 23, 2014

  Actual Average Record
Temperature  
Mean Temperature 27 °F 38 °F  
Max Temperature 49 °F 53 °F 78 °F (2012)
Min Temperature 4 °F 23 °F -1 °F (1965)
Degree Days  
Heating Degree Days 38 27  
Month to date heating degree days 693 698  
Since 1 July heating degree days 6167 5950  
Cooling Degree Days 0 0  
Month to date cooling degree days 0 0  
Year to date cooling degree days 0 0  
Moisture  
Dew Point 19 °F    
Average Humidity 69    
Maximum Humidity 91    
Minimum Humidity 46    
Precipitation  
Precipitation 0.00 in 0.04 in 0.63 in (2009)
Month to date precipitation 0.24 0.88  
Year to date precipitation 1.26 1.85  
Sea Level Pressure  
Sea Level Pressure 30.31 in    
Wind  
Wind Speed 6 mph (West)    
Max Wind Speed 18 mph    
Max Gust Speed 23 mph    
Visibility 10 miles    
Events      
T = Trace of Precipitation, MM = Missing Value Source: NWS Daily Summary

Daily Weather History Graph

Daily Weather History Graph

Search for Another Location

Airport or City:

Trip Planner

Search our weather history database for the weather conditions in past years. The results will help you decide how hot, cold, wet, or windy it might be!

Date:

Astronomy

Mar. 23, 2014 Rise Set
Actual Time 6:50 AM MDT 7:08 PM MDT
Civil Twilight 6:22 AM MDT 7:36 PM MDT
Nautical Twilight 5:48 AM MDT 8:09 PM MDT
Astronomical Twilight 5:14 AM MDT 8:44 PM MDT
Moon 1:34 AM MDT (3/23) 11:26 AM MDT (3/23)
Length of Visible Light 13h 14m
Length of Day
12h 18m
Waning Gibbous, 54% of the Moon is Illuminated
Mar 23
Waning Gibbous
Mar 23
Last Quarter
Mar 30
New
Apr 7
First Quarter
Apr 15
Full

Hourly Weather History & Observations

Time (MDT) Temp. Windchill Dew Point Humidity Pressure Visibility Wind Dir Wind Speed Gust Speed Precip Events Conditions
12:53 AM 8.1 °F - 5.0 °F 87% 30.58 in 10.0 mi Calm Calm - N/A   Clear
1:53 AM 8.1 °F - 5.0 °F 87% 30.55 in 10.0 mi Calm Calm - N/A   Clear
2:53 AM 7.0 °F - 5.0 °F 92% 30.53 in 9.0 mi Calm Calm - N/A   Clear
3:53 AM 6.1 °F - 1.9 °F 83% 30.51 in 10.0 mi Calm Calm - N/A   Clear
4:53 AM 6.1 °F - 1.9 °F 83% 30.48 in 10.0 mi Calm Calm - N/A   Clear
5:53 AM 6.1 °F - 3.0 °F 87% 30.46 in 10.0 mi Calm Calm - N/A   Scattered Clouds
6:53 AM 6.1 °F - 3.0 °F 87% 30.44 in 10.0 mi Calm Calm - N/A   Clear
7:53 AM 10.0 °F - 7.0 °F 87% 30.40 in 10.0 mi Calm Calm - N/A   Clear
8:53 AM 23.0 °F 10.1 °F 19.0 °F 85% 30.35 in 10.0 mi SSW 15.0 mph - N/A   Clear
9:53 AM 26.1 °F 15.6 °F 19.9 °F 78% 30.32 in 10.0 mi SSW 11.5 mph - N/A   Clear
10:11 AM 26.6 °F 16.2 °F 21.2 °F 80% 30.15 in 10.0 mi South 11.5 mph - N/A   Partly Cloudy
10:53 AM 30.0 °F 19.1 °F 23.0 °F 75% 30.29 in 9.0 mi South 15.0 mph - 0.01 in   Clear
11:53 AM 32.0 °F 20.5 °F 25.0 °F 75% 30.25 in 10.0 mi South 18.4 mph - N/A   Clear
12:53 PM 37.0 °F 29.8 °F 27.0 °F 67% 30.20 in 10.0 mi South 10.4 mph - N/A   Partly Cloudy
1:53 PM 42.1 °F 37.1 °F 28.0 °F 58% 30.15 in 10.0 mi SW 8.1 mph - N/A   Clear
2:53 PM 44.1 °F 40.8 °F 28.9 °F 55% 30.11 in 10.0 mi Variable 5.8 mph - N/A   Clear
3:53 PM 46.0 °F - 28.0 °F 50% 30.10 in 10.0 mi Calm Calm - N/A   Clear
4:53 PM 48.0 °F - 28.0 °F 46% 30.09 in 10.0 mi NW 4.6 mph - N/A   Clear
5:53 PM 45.0 °F 39.3 °F 28.0 °F 52% 30.13 in 10.0 mi North 11.5 mph - N/A   Clear
6:53 PM 41.0 °F 33.5 °F 28.0 °F 60% 30.20 in 10.0 mi North 13.8 mph - N/A   Clear
7:53 PM 35.1 °F 27.9 °F 27.0 °F 72% 30.25 in 10.0 mi NNE 9.2 mph - N/A   Mostly Cloudy
8:53 PM 33.1 °F 23.9 °F 28.0 °F 82% 30.26 in 10.0 mi NNE 12.7 mph - N/A   Scattered Clouds
9:53 PM 32.0 °F 26.4 °F 26.1 °F 79% 30.29 in 10.0 mi North 5.8 mph - N/A   Overcast
10:53 PM 30.9 °F 25.2 °F 25.0 °F 79% 30.30 in 10.0 mi North 5.8 mph - N/A   Scattered Clouds
11:53 PM 30.0 °F - 26.1 °F 85% 30.32 in 10.0 mi Calm Calm - N/A   Overcast